This is the latest recevied weather packets stored in our database for station/object N7WSS. If no packets are shown the sender has not sent any weather packets the latest 10 day(s).
| Time | Temp. | Humidity | Pressure | Rain* | Wind** | Luminosity | Snow |
|---|---|---|---|---|---|---|---|
| 1787935255 | 33.89° C | 34% | 1016 hPa | 0 mm | - | - | - |
| 1787934950 | 33.33° C | 34% | 1016.1 hPa | 0 mm | - | - | - |
| 1787934645 | 33.33° C | 34% | 1016.1 hPa | 0 mm | - | - | - |
| 1787934345 | 33.33° C | 35% | 1015.9 hPa | 0 mm | - | - | - |
| 1787934044 | 33.33° C | 34% | 1016.1 hPa | 0 mm | - | - | - |
| 1787933744 | 33.33° C | 34% | 1015.9 hPa | 0 mm | - | - | - |
| 1787933439 | 33.33° C | 35% | 1016 hPa | 0 mm | - | - | - |
| 1787933138 | 33.33° C | 34% | 1015.9 hPa | 0 mm | - | - | - |
| 1787932833 | 33.89° C | 34% | 1016 hPa | 0 mm | - | - | - |
| 1787932532 | 34.44° C | 33% | 1015.9 hPa | 0 mm | - | - | - |
| 1787932228 | 34.44° C | 34% | 1015.7 hPa | 0 mm | - | - | - |
| 1787931927 | 34.44° C | 35% | 1016 hPa | 0 mm | - | - | - |
| 1787931626 | 33.33° C | 35% | 1015.9 hPa | 0 mm | - | - | - |
| 1787931326 | 32.78° C | 36% | 1016 hPa | 0 mm | - | - | - |
| 1787931021 | 32.78° C | 37% | 1015.9 hPa | 0 mm | - | - | - |
| 1787930720 | 32.22° C | 38% | 1016 hPa | 0 mm | - | - | - |
| 1787930415 | 32.22° C | 38% | 1016 hPa | 0 mm | - | - | - |
| 1787930110 | 31.67° C | 39% | 1015.7 hPa | 0 mm | - | - | - |
| 1787929809 | 31.67° C | 38% | 1016 hPa | 0 mm | - | - | - |
| 1787929504 | 31.67° C | 38% | 1016 hPa | 0 mm | - | - | - |
| 1787929202 | 31.67° C | 38% | 1015.9 hPa | 0 mm | - | - | - |
| 1787928897 | 30.56° C | 40% | 1016.1 hPa | 0 mm | - | - | - |
| 1787928596 | 30.56° C | 39% | 1016 hPa | 0 mm | - | - | - |
| 1787928295 | 30° C | 40% | 1016.1 hPa | 0 mm | - | - | - |
| 1787927994 | 30° C | 40% | 1016.1 hPa | 0 mm | - | - | - |
* Rain latest hour (hover to see other rain measurements)
** Current wind speed in m/s (hover to see current wind gust speed)